Mount Shasta, CA

1:57 AM PDT on April 28, 2017 (GMT -0700)
Mount Shasta

Weather History for KMHS - October, 2012

Change the Weather History Date:

Sunday, October 21, 2012

  Actual Average Record
Temperature  
Mean Temperature 45 °F 49 °F  
Max Temperature 59 °F 64 °F 82 °F (2003)
Min Temperature 30 °F 35 °F 21 °F (1996)
Degree Days  
Heating Degree Days 20 16  
Month to date heating degree days 173 251  
Since 1 July heating degree days 218 488  
Cooling Degree Days 0 0  
Month to date cooling degree days 4 0  
Year to date cooling degree days 392 287  
Moisture  
Dew Point 28 °F    
Average Humidity 55    
Maximum Humidity 82    
Minimum Humidity 24    
Precipitation  
Precipitation T in 0.08 in 1.89 in (1982)
Month to date precipitation T 1.17  
Year to date precipitation 24.56 29.17  
Sea Level Pressure  
Sea Level Pressure 29.87 in    
Wind  
Wind Speed 2 mph (WNW)    
Max Wind Speed 7 mph    
Max Gust Speed 17 mph    
Visibility 10 miles    
Events      
T = Trace of Precipitation, MM = Missing Value Source: NWS Daily Summary

Daily Weather History Graph

Daily Weather History Graph

Search for Another Location

Airport or City:

Trip Planner

Search our weather history database for the weather conditions in past years. The results will help you decide how hot, cold, wet, or windy it might be!

Date:

Astronomy

Oct. 21, 2012 Rise Set
Actual Time 7:28 AM PDT 6:18 PM PDT
Civil Twilight 7:00 AM PDT 6:46 PM PDT
Nautical Twilight 6:28 AM PDT 7:18 PM PDT
Astronomical Twilight 5:56 AM PDT 7:50 PM PDT
Moon 1:54 PM PDT (10/21) No Moon Set
Length of Visible Light 11h 46m
Length of Day
10h 49m
Waxing Crescent, 46% of the Moon is Illuminated
Oct 21
Waxing Crescent
Oct 21
First Quarter
Oct 29
Full
Nov 6
Last Quarter
Nov 13
New

Hourly Weather History & Observations

Time (PDT) Temp. Windchill Dew Point Humidity Pressure Visibility Wind Dir Wind Speed Gust Speed Precip Events Conditions
12:56 AM 42.1 °F 40.2 °F 30.0 °F 62% 29.91 in 10.0 mi Variable 3.5 mph - N/A   Clear
1:56 AM 41.0 °F 39.0 °F 30.0 °F 65% 29.90 in 10.0 mi Variable 3.5 mph - N/A   Clear
2:56 AM 41.0 °F 39.0 °F 30.9 °F 67% 29.93 in 10.0 mi Variable 3.5 mph - N/A   Scattered Clouds
3:56 AM 37.9 °F 33.5 °F 30.0 °F 73% 29.93 in 10.0 mi Variable 5.8 mph - N/A   Partly Cloudy
4:56 AM 37.0 °F - 30.0 °F 76% 29.93 in 10.0 mi Calm Calm - N/A   Clear
5:56 AM 36.0 °F - 28.9 °F 76% 29.93 in 10.0 mi Calm Calm - N/A   Partly Cloudy
6:56 AM 33.1 °F - 28.0 °F 82% 29.96 in 10.0 mi Calm Calm - N/A   Clear
7:56 AM 34.0 °F 29.8 °F 28.9 °F 82% 29.96 in 10.0 mi WNW 4.6 mph - N/A   Clear
8:56 AM 37.0 °F - 30.9 °F 79% 29.96 in 10.0 mi Calm Calm - N/A   Clear
9:56 AM 42.1 °F - 30.9 °F 65% 29.95 in 10.0 mi Calm Calm - N/A   Clear
10:56 AM 48.0 °F - 30.9 °F 52% 29.93 in 10.0 mi Calm Calm - N/A   Clear
11:56 AM 51.1 °F - 25.0 °F 36% 29.90 in 10.0 mi Calm Calm - N/A   Clear
12:56 PM 54.0 °F - 21.9 °F 29% 29.88 in 10.0 mi Variable 3.5 mph - N/A   Clear
1:56 PM 57.0 °F - 21.9 °F 26% 29.83 in 10.0 mi Variable 4.6 mph - N/A   Clear
2:56 PM 55.0 °F - 21.9 °F 28% 29.82 in 10.0 mi Variable 4.6 mph - N/A   Partly Cloudy
3:56 PM 54.0 °F - 21.9 °F 29% 29.81 in 10.0 mi Variable 4.6 mph - N/A   Overcast
4:56 PM 55.0 °F - 21.0 °F 27% 29.81 in 10.0 mi Variable 3.5 mph - N/A   Scattered Clouds
5:56 PM 50.0 °F - 21.0 °F 32% 29.82 in 10.0 mi Calm Calm - N/A   Mostly Cloudy
6:56 PM 48.9 °F - 23.0 °F 36% 29.84 in 10.0 mi Calm Calm - N/A   Overcast
7:56 PM 46.9 °F - 24.1 °F 41% 29.84 in 10.0 mi Calm Calm - N/A   Scattered Clouds
8:56 PM 45.0 °F - 26.1 °F 48% 29.82 in 10.0 mi Calm Calm - N/A   Clear
9:56 PM 46.0 °F - 32.0 °F 58% 29.79 in 10.0 mi Calm Calm - N/A   Mostly Cloudy
10:44 PM 46.4 °F - 35.6 °F 66% 29.73 in 10.0 mi Calm Calm - 0.00 in   Overcast
10:56 PM 46.0 °F 43.9 °F 36.0 °F 68% 29.77 in 10.0 mi Variable 4.6 mph - 0.00 in   Overcast
11:56 PM 46.0 °F 44.8 °F 33.1 °F 61% 29.74 in 10.0 mi Variable 3.5 mph - N/A   Overcast